Tracking 19817 objects as of 18-Aug-2019
HD Live streaming from Space Station
objects crossing your sky now

USA 43

Track USA 43 now!
USA 43 is classified as:


NORAD ID: 20202
Int'l Code: 1989-069A
Perigee: 36,209.0 km
Apogee: 36,322.1 km
Inclination: 15.1 °
Period: 1,460.3 minutes
Semi major axis: 42636 km
RCS: Unknown
Launch date: September 4, 1989
Source: United States (US)
Launch site: AIR FORCE EASTERN TEST RANGE (AFETR)
aabbcc
Your satellite tracking list
Your tracking list is empty




NASA's NSSDC Master Catalog

Two Line Element Set (TLE):
1 20202U 89069A   19229.03070500 -.00000130  00000-0  00000+0 0  9990
2 20202  15.1367 355.9263 0013264 209.7981 150.1778  0.98611958  1182
Source of the keplerian elements: McCants